Regional Weather Roundup
Issued by NWS

Home | Current Version | Previous Version | Text Only | Print | Product List | Glossary Off
Versions: 1 2 3 4 5 6 7 8 9 10 11 12 13 14 15 16 17 18 19 20 21 22 23 24 25 26 27 28 29 30 31 32 33 34 35 36 37 38 39 40 41 42 43 44 45 46 47 48 49 50

000
ASUS43 KDMX 180807
RWRIA

WEATHER ROUNDUP FOR IOWA
NATIONAL WEATHER SERVICE DES MOINES IA
200 AM CST THU DEC 18 2014

NOTE: "FAIR" INDICATES FEW OR NO CLOUDS BELOW 12,000 FEET WITH NO
SIGNIFICANT WEATHER AND/OR OBSTRUCTIONS TO VISIBILITY.

* - THESE STATIONS ARE NOT NWS STATIONS...THUS NOT UNDER NWS
QUALITY CONTROL.  THEY ALSO DO NOT REPORT WEATHER SUCH
AS PRECIPITATION OR FOG.

IAZ001>003-012>014-020>022-031>034-043>046-180900-
   NORTHWEST IOWA

CITY           SKY/WX    TMP DP  RH WIND       PRES   REMARKS
CARROLL *      CLOUDY    23  19  86 E5        30.26F WCI  17
CHEROKEE *     CLOUDY    21  19  93 E6        30.26F WCI  14
DENISON *      CLOUDY    25  19  80 E6        30.23F WCI  18
LE MARS *      CLOUDY    23  19  86 E5        30.25F WCI  17
ORANGE CITY *  CLOUDY    21  18  86 E6        30.23F WCI  14
SHELDON *      CLOUDY    18  16  93 E7        30.24F WCI   8
SIOUX CITY     CLOUDY    26  19  74 SE7       30.25F WCI  18
SPENCER        CLOUDY    15  11  83 NE6       30.28F WCI   6
STORM LAKE *   CLOUDY    19  18  93 E7        30.26S WCI  10
$$

IAZ055>058-069>071-079>083-090>094-180900-
   SOUTHWEST IOWA

CITY           SKY/WX    TMP DP  RH WIND       PRES   REMARKS
ATLANTIC *     CLOUDY    25  19  80 E7        30.24F WCI  17
AUDUBON *      CLOUDY    23  16  74 E6        30.24F WCI  16
CLARINDA *     CLOUDY    28  21  74 E6        30.26F WCI  22
COUNCIL BLFS * CLOUDY    27  23  86 E5        30.22S WCI  21
CRESTON *      CLOUDY    25  19  80 E7        30.25S WCI  17
HARLAN  *      CLOUDY    25  23  93 E6        30.27F WCI  18
LAMONI         CLOUDY    26  19  74 E6        30.25F WCI  19
RED OAK *      CLOUDY    27  21  80 E6        30.25S WCI  20
SHENANDOAH *   CLOUDY    28  21  74 E7        30.25F WCI  21
$$

IAZ047>049-059>061-072>074-084-180900-
   CENTRAL IOWA

CITY           SKY/WX    TMP DP  RH WIND       PRES   REMARKS
AMES           MOCLDY    19  14  81 CALM      30.29F
ANKENY *       CLOUDY    19  18  93 CALM      30.30S
CHARITON *     CLOUDY    25  19  80 E6        30.27F WCI  18
DES MOINES     CLOUDY    23  17  78 E6        30.29S WCI  16
GRINNELL*      PTCLDY    16  12  86 N3        30.29S
KNOXVILLE *    CLOUDY    23  16  74 CALM      30.28S
MARSHALLTOWN   PTCLDY    13  11  92 N6        30.28F WCI   4
PELLA *        MOCLDY    19  18  93 CALM      30.31S
PERRY *        CLOUDY    21  21 100 NE3       30.28F
$$

IAZ004>006-015-016-023>025-035-036-180900-
   NORTH CENTRAL IOWA

CITY           SKY/WX    TMP DP  RH WIND       PRES   REMARKS
ALGONA *       CLEAR     12   9  85 N6        30.29F WCI   3
CLARION *      CLEAR     12  10  92 N7        30.28F WCI   2
ESTHERVILLE    CLEAR      9   6  88 CALM      30.28S
FORT DODGE *   CLOUDY    18  12  79 CALM      30.29F
MASON CITY     CLOUDY    16  12  84 CALM      30.31R
FOREST CITY *  CLOUDY    14  10  85 CALM      30.29R
IOWA FALLS *     N/A     14  12  92 N3        30.29F
$$

IAZ007>011-017>019-026>030-037>042-050>054-066-180900-
   NORTHEAST IOWA

CITY           SKY/WX    TMP DP  RH WIND       PRES   REMARKS
CEDAR RAPIDS   CLEAR     12  10  92 CALM      30.28S
CHARLES CITY * CLEAR     14  12  92 CALM      30.30R
CLINTON *      CLEAR     14   9  79 CALM      30.31S
DECORAH *      PTCLDY    16  12  86 CALM      30.28R
DUBUQUE        CLEAR     15  13  91 N3        30.27S
MONTICELLO *   CLEAR     18  16  93 CALM      30.28F
OELWEIN *      CLEAR     14  10  85 CALM      30.29R
WATERLOO       PTCLDY    15  12  88 NW3       30.30R
$$

IAZ064-065-067-068-078-180900-
   EAST CENTRAL IOWA

CITY           SKY/WX    TMP DP  RH WIND       PRES   REMARKS
DAVENPORT      CLEAR     15  11  83 CALM      30.30R
IOWA CITY      PTCLDY    16  13  88 W5        30.32R WCI   9
MT. PLEASANT * PTCLDY    19  18  93 CALM      30.31S
MUSCATINE *    CLEAR     18  16  93 CALM      30.33R
QUAD CITIES    CLEAR     17  13  84 S5        30.31R WCI  10
$$

IAZ062-063-075>077-085>089-095>099-180900-
   SOUTHEAST IOWA

CITY           SKY/WX    TMP DP  RH WIND       PRES   REMARKS
BURLINGTON     PTCLDY    20  18  92 CALM      30.30S
FAIRFIELD *    PTCLDY    19  16  86 CALM      30.30S
FORT MADISON * CLEAR     21  19  93 CALM      30.31S
KEOKUK *       CLEAR     23  21  93 CALM      30.30S
OSKALOOSA *      N/A     19  18  93 NE3       30.29F
CENTERVILLE *  MOCLDY    25  19  80 E5        30.28F WCI  19
OTTUMWA        CLOUDY    22  15  75 CALM      30.29S
WASHINGTON *   CLEAR     18  18 100 W3        30.31R
$$

ABBREVIATIONS USED IN REMARKS
   TC - TEMPERATURES IN CELSIUS
  WCI - WIND CHILL INDEX
   HX - HEAT INDEX
  VSB - VISIBILITY
$$




USA.gov is the U.S. government's official web portal to all federal, state and local government web resources and services.